Overview Statistics Trail Chart Weather Telemetry Raw packets
 

This is the latest recevied weather packets stored in our database for station/object ES0THZ-13. If no packets are shown the sender has not sent any weather packets the latest 10 day(s).

<< 7 8 9 10 11 12 13 >>
Time Temp. Humidity Pressure Rain* Wind** Luminosity Snow
1788406199 15° C 91% 1003.1 hPa - - - -
1788405206 15.56° C 91% 1003.6 hPa - - - -
1788404181 15.56° C 90% 1002.4 hPa - - - -
1788403071 15.56° C 90% 1003.5 hPa - - - -
1788401936 16.11° C 90% 1004.2 hPa - - - -
1788400840 16.11° C 89% 1003.4 hPa - - - -
1788399740 16.67° C 89% 1003.5 hPa - - - -
1788398691 16.67° C 89% 1002.8 hPa - - - -
1788397596 16.67° C 89% 1003.3 hPa - - - -
1788396620 17.22° C 89% 1003.4 hPa - - - -
1788395580 17.22° C 89% 1004.4 hPa - - - -
1788394436 17.22° C 89% 1003.8 hPa - - - -
1788393371 17.22° C 89% 1003.3 hPa - - - -
1788392260 16.67° C 89% 1004 hPa - - - -
1788391196 16.67° C 88% 1004.5 hPa - - - -
1788390191 16.67° C 88% 1004.7 hPa - - - -
1788389171 16.67° C 88% 1004.5 hPa - - - -
1788388136 16.67° C 88% 1004 hPa - - - -
1788387081 16.67° C 88% 1004.5 hPa - - - -
1788386111 16.67° C 88% 1004.1 hPa - - - -
1788385046 16.67° C 87% 1004.8 hPa - - - -
1788383896 16.67° C 87% 1005.6 hPa - - - -
1788382871 16.67° C 87% 1004.5 hPa - - - -
1788381779 16.67° C 87% 1003.8 hPa - - - -
1788380651 16.11° C 87% 1004.5 hPa - - - -

* Rain since midnight (hover to see other rain measurements)
** Current wind speed in m/s (hover to see current wind gust speed)